Regional Weather Roundup
Issued by NWS New Orleans/Baton Rouge, LA

Home | Current Version | Previous Version | Text Only | Print | Product List | Glossary On
Versions: 1 2 3 4 5 6 7 8 9 10 11 12 13 14 15 16 17 18 19 20 21 22 23 24 25 26 27 28 29 30 31 32 33 34 35 36 37 38 39 40 41 42 43 44 45 46 47 48 49 50
000
ASUS44 KLIX 230510
RWRLIX
NEW ORLEANS REGIONAL WEATHER ROUNDUP
NATIONAL WEATHER SERVICE NEW ORLEANS LA
1200 AM CDT TUE SEP 23 2014

NOTE: "FAIR" INDICATES FEW OR NO CLOUDS BELOW 12,000 FEET WITH NO
      SIGNIFICANT WEATHER AND/OR OBSTRUCTIONS TO VISIBILITY.
      SKY/WX - SKY CONDITION AND SIGNIFICANT WEATHER.
      TMP - AIR TEMPERATURE.     DP    - DEWPOINT TEMPERATURE.
      RH  - RELATIVE HUMIDITY.   PRES  - PRESSURE.
      HI  - HEAT INDEX.          WCI   - WIND CHILL INDEX.

*  THESE STATIONS ARE NOT NWS OR FAA STATIONS AND ARE NOT UNDER
   NWS QUALITY CONTROL.

LAZ038-040-048-061>063-065>067-069-230600-
SOUTHEAST LOUISIANA

CITY           SKY/WX    TMP DP  RH WIND       PRES   REMARKS
N.O. AUDUBON     N/A     78  59  52 MISG        N/A
N.O. INTL ARPT CLEAR     78  56  46 NE17G25   30.04F
N.O. LAKEFRONT CLEAR     78  61  55 NE26      30.05S
N.O. DOWNTOWN*   N/A     79  55  44 N6G17     30.04F
SLIDELL        CLEAR     65  57  75 N5        30.06S
BATON ROUGE    CLEAR     65  57  75 CALM      30.08F
BOOTHVILLE     CLEAR     82  66  58 NE12      30.02S
BELLE CHASSE   CLEAR     75  55  49 NE10      30.03F
BOGALUSA*        N/A     62  55  78 N3        30.10S
GALLIANO*      NOT AVBL
NEW ROADS*       N/A     65  57  75 NE3       30.09S
GONZALES*        N/A     69  60  73 CALM      30.06S
HAMMOND*       CLEAR     66  55  68 N5        30.09S
HOUMA*         CLEAR     69  54  60 N6        30.04S
PORT FOURCHON* CLEAR     81  64  57 NE13G23   30.05S

$$

MSZ070-080>082-230600-
SOUTHERN MISSISSIPPI

CITY           SKY/WX    TMP DP  RH WIND       PRES   REMARKS
MCCOMB         CLEAR     67  54  63 N7        30.10S
GULFPORT       CLEAR     69  54  58 N7        30.05S
BILOXI         CLEAR     69  56  62 N8        30.05S
PASCAGOULA     CLEAR     60  57  89 CALM      30.05S

$$

COASTAL OBSERVATIONS
LAKE AND NEARSHORE STATIONS

STATION/POSITION TIME  TEMP    WIND        PRES    WAVE
                       AIR SEA DIR/SP/G            HT/PER
                 (UTC) (F)     (DEG/KT/KT) (MB)    (FT/S)
PASCAGOULA       0500   72      40/  7/ 11 1016.9
WAVELAND YACHT   0500   74      30/ 17/ 19 1016.9
GRAND ISLE       0500   80 83   40/ 12/ 19 1017.1
SOUTHWEST PASS   0500   82 89   40/ 15/ 17 1016.2
NEW CANAL        0500   79 81   40/ 23/ 27 1017.3
SHELL BEACH      0500   78 78   30/ 22/ 25 1016.9

OFFSHORE STATIONS

STATION/POSITION TIME  TEMP    WIND        PRES    WAVE
                       AIR SEA DIR/SP/G            HT/PER
                 (UTC) (F)     (DEG/KT/KT) (MB)    (FT/S)
64 S DAUPHIN ISL 0359   81 83   60/ 21/ 23 1016.1    4/ 4

$$




USA.gov is the U.S. government's official web portal to all federal, state and local government web resources and services.